Back to catalog

CZ-6A DEB

AliveSSO
NORAD 54336·DEBRIS·🇨🇳 China

Launched Nov 11, 2022 from Taiyuan Satellite Launch Center

Loading…

Next Passes (next 24 hours)

TLE

FreshSource: Space-Track

Epoch: Sep 12, 2026, 21:53 UTC

1 54336U 22151CF  26255.91244267  .00000471  00000-0  29316-3 0  9993
2 54336  98.8593 249.7331 0059480 111.0304 249.7242 14.08745525196535

Track CZ-6A DEB in real time with AllMySat

Download on the App Store